Погода в Пушкине

Россия / Санкт-Петербург и Ленинградская область     59°43′20″N   30°25′01″E
темп.,
°C
ветер,
м/с
пор.,
м/с
влажн.,
%
обл.,
%
осадки,
мм/ч
давл.,
гПа
погр.,
м
31 июля, сб
сб3100:00+15ю4117169 0.0 997293
03:00+15ю61369100 0.0 995782
06:00+15ююз6128688 0.4 994875
09:00+16юз71284100 1.6 9941066
12:00+17з7128430 1.3 9961103
15:00+21зсз7115417 1.9 9981713
18:00+21зсз612501 0.0 10001634
21:00+18зюз2264100 0.0 100122
1 августа, вс
вс100:00+15юз34785 0.0 100271
03:00+14юз399898 0.0 1002233
06:00+15ююз399554 0.0 1003271
09:00+18ю4985100 0.8 1002530
12:00+21юз587110 1.6 10011312
15:00+22ююз595369 2.1 10011163
18:00+22юз713544 0.2 10011734
21:00+18зюз612745 0.3 1002805
2 августа, пн
пн200:00+15юз31089100 0.0 1004403
03:00+13ююз399274 0.0 1005228
06:00+14юз3989100 0.0 1005246
09:00+19юз366449 0.0 1005771
12:00+21ююз3463100 0.3 10041113
15:00+20ююв3576100 1.6 1002388
18:00+16ю2596100 2.3 1001233
21:00+15сз1197100 4.4 100016
3 августа, вт
вт300:00+15зюз119571 0.0 100028
03:00+13юз2496100 0.1 100098
06:00+13зюз41095100 0.3 1000291
09:00+16зюз468296 0.3 1001552
12:00+20зюз575254 0.0 10011713
15:00+18з797430 0.8 10031097
18:00+17з697381 0.8 10051046
21:00+15з487691 0.9 1006801
4 августа, ср
ср400:00+14з3881100 0.1 1008405
03:00+11з389338 0.4 1009189
06:00+11з39872 0.0 1011234
09:00+16ссз47555 0.0 1013830
12:00+19зсз354017 0.0 10142063
15:00+21зсз243529 0.0 10142011
18:00+20з223733 0.0 10151515
21:00+15юз116155 0.0 101615